Location: ?ím
(49.7788°N, 14.3795°E)
Time: 07:06:04
(UTC+00:00)

Daily predictions for brighter satellites

Satellite Brightness Start Highest point End
(mag) Time Altitude Azimuth Time Altitude Azimuth Time Altitude Azimuth
Cosmos 2082 3.9 17:08:47 10° NNW 17:14:27 57° NE 17:20:06 10° SE
USA 186 3.8 17:17:05 10° E 17:18:40 13° ENE 17:20:16 10° NNE
ARGOS Delta rocket 4.3 17:16:15 10° NNE 17:21:27 46° E 17:26:22 10° S
Meteor 2-19 Rocket 4.4 17:16:08 10° S 17:22:13 76° E 17:28:23 10° NNE
Cosmos 1733 Rocket 3.6 17:18:47 10° SSE 17:22:50 36° E 17:26:55 10° NNE
MINOTAUR 4 R/B 4.3 17:20:48 10° N 17:24:17 71° WNW 17:27:45 10° SSW
BREEZE-M DEB (TANK) 4.4 17:20:36 10° SSW 17:25:00 45° SE 17:40:35 10° ENE
Cosmos 1697 Rocket 2.7 17:20:35 10° SSW 17:26:07 64° ESE 17:31:41 10° NNE
Okean-O 4.1 17:23:50 10° ESE 17:27:00 20° ENE 17:30:10 10° NNE
MOS 1-B 4.4 17:22:10 10° SSE 17:27:57 80° ENE 17:33:49 10° NNW
DMSP B5D2-2 4.2 17:23:22 10° NNE 17:28:41 89° ESE 17:33:58 10° SSW
Cosmos 1242 Rocket 2.9 17:25:30 10° SSE 17:28:50 39° E 17:32:11 10° NNE
Cosmos 1674 2.8 17:25:48 10° NNW 17:29:35 76° W 17:33:17 10° S
COSMO-SKYMED 1 2.7 17:26:40 10° NNE 17:31:03 81° WNW 17:35:23 10° SSW
Cosmos 1726 3.2 17:28:36 10° SE 17:31:30 23° E 17:34:26 10° NE
PSLV R/B 4.2 17:32:56 10° S 17:36:37 64° WSW 17:40:17 10° NNW
Cosmos 2084 3.7 17:33:57 10° SSW 17:37:29 37° SE 17:41:01 10° ENE
Cosmos 676 Rocket 4.0 17:33:29 10° SSW 17:38:40 89° ESE 17:43:53 10° NNE
USA 267 4.5 17:37:58 10° SSE 17:44:02 40° SW 17:50:09 10° WNW
COBE Rocket 3.9 17:41:41 10° SSE 17:46:37 88° W 17:51:26 10° NNW
Cosmos 2285 Rocket 4.5 17:40:37 10° NNW 17:46:37 42° NE 17:52:22 11° SE
Cosmos 2227 Rocket 3.5 17:42:54 10° NW 17:48:14 43° WSW 17:53:32 10° S
Okean 2 3.8 17:44:08 10° NNW 17:48:17 69° W 17:52:24 10° S
Timation 2 Rocket 4.1 17:41:52 10° NNW 17:48:24 66° NE 17:54:36 10° SE
Feng Yun 1-1 Rocket 4.2 17:44:06 10° SSE 17:49:34 67° ENE 17:54:57 10° N
Cosmos 1733 3.0 17:48:33 10° S 17:52:16 71° E 17:56:02 10° NNE
Cosmos 1975 4.0 17:48:40 10° SSW 17:52:35 47° WNW 17:56:30 10° N
CZ-4 R/B 1.4 17:49:29 10° SSE 17:53:37 76° ENE 17:57:49 10° N
Spot 1 4.2 17:49:31 10° NNE 17:53:52 77° WNW 17:58:00 10° SSW
CZ-4B R/B 3.4 17:50:06 10° S 17:55:27 73° WSW 18:00:56 10° NNW
Okean O Rocket 1.7 17:56:20 10° SSE 18:00:41 81° WSW 18:05:05 10° NNW
Nadezhda 4 Rocket 4.2 17:55:27 10° SSE 18:01:31 51° E 18:07:36 10° NNE
CSL-04 Rocket 3.9 17:57:10 10° SE 18:02:13 46° ENE 18:07:22 10° N
SJ-6B 3.2 18:01:55 18° SE 18:04:14 39° ENE 18:07:45 10° N
Cosmos 1980 Rocket 2.1 18:00:16 10° SSW 18:05:51 66° ESE 18:11:27 10° NNE
Cosmos 1908 Rocket 4.1 18:02:07 10° SSE 18:06:04 35° E 18:10:01 10° NNE
ASTEX 1 4.1 18:02:51 10° N 18:07:44 58° W 18:12:36 10° SSW
ATLAS 2AS CENTAUR R/B 4.4 18:03:12 10° WNW 18:09:45 30° NNW 18:15:59 10° NE
Cosmos 968 Rocket 4.4 18:05:54 10° SSE 18:10:10 26° E 18:14:26 10° NE
Meteor 2-21 4.3 18:04:26 10° S 18:10:25 67° E 18:16:25 10° NNE
Cosmos 2369 3.6 18:05:35 10° SSW 18:11:17 77° ESE 18:17:01 10° NNE
Cosmos 1809 Rocket 4.4 18:06:05 10° S 18:12:10 83° E 18:18:17 10° NNE
Meteor 1-24 Rocket 4.1 18:10:36 10° N 18:15:35 39° ENE 18:18:19 23° ESE
Cosmos 540 Rocket 4.5 18:11:30 10° NNW 18:16:23 47° WSW 18:21:15 10° S
Landsat 5 3.8 18:14:01 10° NNE 18:18:24 48° E 18:22:43 10° S
Cosmos 1674 Rocket 3.7 18:14:30 10° NNW 18:18:55 78° W 18:23:19 10° S
Cosmos 2278 3.9 18:13:41 10° S 18:19:06 49° ESE 18:24:35 10° NE
YAOGAN 1 3.7 18:14:59 10° S 18:19:07 45° W 18:23:18 10° NNW
Landsat 7 4.2 18:19:20 25° SE 18:21:38 44° ENE 18:26:07 10° N
Ariane Rocket 4.4 18:22:22 20° ENE 18:23:05 20° ENE 18:26:46 10° N
SL-16 R/B 3.0 18:18:37 10° SSE 18:23:16 27° ESE 18:27:57 10° NE
Cosmos 1850 Rocket 3.9 18:18:15 10° SSW 18:23:29 86° ESE 18:28:47 10° NNE
Cosmos 841 Rocket 3.9 18:18:29 10° NNW 18:23:37 62° WSW 18:28:41 10° S
Cosmos 2292 Rocket 4.1 18:18:51 10° SSE 18:24:27 50° E 18:28:43 10° NNE
SL-4 R/B 2.2 18:20:30 10° WNW 18:24:59 86° NNE 18:27:05 33° ESE
Cosmos 1437 Rocket 3.1 18:24:58 38° E 18:25:02 38° E 18:28:32 10° NNE
Cosmos 1570 Rocket 4.1 18:20:27 10° NNW 18:25:39 55° ENE 18:28:15 28° SE
OBJECT-B 0.1 18:25:24 53° S 18:25:55 82° W 18:28:30 10° NNW
Cosmos 1844 Rocket 3.5 18:27:23 10° NNW 18:32:33 35° NE 18:34:20 28° E
H-2A R/B 3.0 18:32:30 35° ENE 18:32:38 35° ENE 18:36:13 10° N
Meteor 2-10 4.4 18:27:12 10° SSW 18:32:52 74° WNW 18:38:25 10° N
Cosmos 2278 Rocket 4.4 18:31:08 10° N 18:32:55 11° NNE 18:34:43 10° NE
ISS -3.3 18:32:53 10° WNW 18:36:11 51° SSW 18:36:41 46° S
Cosmos 1092 Rocket 4.1 18:31:18 10° SSE 18:37:23 54° E 18:43:29 10° NNE
Cosmos 1025 Rocket 3.4 18:33:48 10° N 18:37:52 39° ENE 18:38:03 39° E
Resurs 01 Rocket 2.2 18:42:03 37° ENE 18:42:11 37° ENE 18:46:16 10° N
Meteor 2-5 Rocket 3.6 18:37:25 10° N 18:42:59 73° ENE 18:46:13 26° SSE
Cosmos 1975 Rocket 3.3 18:38:53 10° N 18:43:12 48° ENE 18:43:37 46° E
Meteor 1-15 Rocket 4.1 18:38:25 10° S 18:43:58 73° E 18:49:33 10° NNE
Terra 4.1 18:44:56 11° NE 18:44:56 11° NE 18:45:42 10° NE
Cosmos 2084 Rocket 4.0 18:41:46 10° NNW 18:45:20 36° NE 18:45:31 35° NE
Cosmos 2208 Rocket 4.0 18:42:18 10° NNW 18:47:40 65° ENE 18:49:29 41° SE
Cosmos 2227 4.1 18:43:28 10° NNW 18:49:08 85° WSW 18:52:00 30° SSE
Cosmos 2263 Rocket 2.8 18:44:07 10° NW 18:49:40 54° WSW 18:54:19 15° S
USA 215 3.9 18:44:25 15° ENE 18:49:40 50° N 18:55:55 10° W
USA 186 2.6 18:49:21 31° SSW 18:50:35 50° W 18:53:48 10° NNW
Cosmos 1844 4.3 18:45:35 10° NNW 18:50:47 38° NE 18:51:50 35° ENE
USA 81 4.0 18:46:20 10° N 18:51:37 65° E 18:53:32 38° SSE
Cosmos 1741 Rocket 4.5 18:46:37 10° SW 18:51:52 62° WNW 18:57:06 10° NNE
IGS 5A 3.8 18:53:35 26° S 18:55:48 63° W 18:59:55 10° NNW
Cosmos 1766 4.4 18:57:10 10° SSW 19:00:54 44° WNW 19:04:43 10° N
Okean-O 3.1 19:00:42 26° S 19:03:04 59° WSW 19:07:27 10° NNW
Cosmos 1726 4.1 19:03:04 10° SW 19:06:17 29° WNW 19:09:32 10° N
Resurs 1-3 3.8 19:05:38 40° S 19:07:06 68° WSW 19:11:29 10° NNW
MetOp-B 4.5 19:11:14 46° ENE 19:11:14 46° ENE 19:16:18 10° N
Cosmos 1627 Rocket 4.3 19:06:37 10° S 19:12:44 84° E 19:18:53 10° N
IRS-1A Rocket 4.2 19:14:08 58° ESE 19:15:02 67° ENE 19:20:46 10° N
USA 281 3.8 19:20:05 37° ENE 19:21:02 39° NE 19:27:02 10° NNW
SPOT 1/Viking Rocket 3.4 19:22:41 76° SE 19:23:05 84° ENE 19:28:16 10° NNW
SPOT 3 Rocket 4.3 19:27:59 39° NE 19:27:59 39° NE 19:31:53 10° N
Cosmos 1470 3.7 19:28:31 44° NW 19:28:31 44° NW 19:31:32 10° N
Cosmos 1417 Rocket 4.4 19:22:52 10° N 19:28:57 60° ENE 19:29:01 60° E
CZ-4 R/B 4.5 19:27:09 10° WSW 19:29:05 13° W 19:31:00 10° WNW
deb Chang Zheng 4 4.3 19:35:02 47° W 19:35:02 47° W 19:38:54 10° NNW
Gbstr 26 Del rocket 4.4 19:29:28 10° WSW 19:37:22 82° SSE 19:40:02 48° ENE
Cosmos 2026 Rocket 4.2 19:34:01 10° SSW 19:40:02 65° WNW 19:46:05 10° N
Cosmos 2322 Rocket 3.8 19:43:56 22° NE 19:43:56 22° NE 19:45:55 10° NNE
Cosmos 1553 Rocket 4.0 19:37:05 10° N 19:43:26 84° W 19:44:28 65° S
Cosmos 1980 Rocket 4.1 19:45:31 10° WSW 19:50:20 28° NW 19:55:09 10° NNE
Cosmos 968 Rocket 4.1 19:46:29 10° SW 19:51:37 54° WNW 19:56:47 10° NNE
Ariane Rocket 3.6 20:02:33 55° NW 20:02:33 55° NW 20:06:39 10° NNW
ATLAS 2AS CENTAUR R/B 4.1 19:56:36 10° NW 20:02:54 29° NNE 20:05:21 24° NE
SL-4 R/B 4.1 20:00:04 10° WNW 20:02:29 26° W 20:02:29 26° W
ERS-1 Rocket 4.3 20:07:59 33° N 20:07:59 33° N 20:10:51 10° N
SL-16 R/B 2.6 20:01:24 10° SW 20:07:00 60° WNW 20:12:38 10° NNE
NOSS 3-4 (A) 4.1 20:08:06 10° NW 20:14:38 56° NE 20:14:38 56° NE
NOSS 3-4 (C) 4.1 20:08:13 10° NW 20:14:43 55° NE 20:14:43 55° NE
Cosmos 1844 Rocket 3.4 20:11:11 10° NW 20:16:00 49° W 20:16:00 49° W
Resurs 01 Rocket 3.6 20:19:37 26° WNW 20:19:37 26° WNW 20:22:35 10° NW
Cosmos 2278 Rocket 3.6 20:13:49 10° NNW 20:17:26 29° NNE 20:17:26 29° NNE
Terra 3.7 20:23:50 25° N 20:23:50 25° N 20:25:51 10° N
USA 215 3.7 20:31:46 51° NNE 20:32:06 52° N 20:38:23 10° WNW
Cosmos 1943 Rocket 4.2 20:29:45 10° N 20:32:30 18° NNE 20:32:30 18° NNE
Cosmos 2360 Rocket 4.3 21:02:35 19° NNE 21:02:35 19° NNE 21:04:15 10° NNE
USA 281 4.0 21:06:58 45° WNW 21:06:58 45° WNW 21:11:49 10° NNW
Cosmos 2322 Rocket 4.1 21:25:40 26° NNW 21:25:40 26° NNW 21:29:40 10° NNE
ATLAS 2AS CENTAUR R/B 3.9 21:48:14 10° NW 21:52:45 38° NNW 21:52:45 38° NNW
